2021-022AF

Last updated on Thu Apr 22 2021 00:02:03 GMT+0000 (Coordinated Universal Time)

1 47961U 21022AF 21111.57473473 .00001570 00000-0 11232-3 0 9995 2 47961 97.5635 14.8682 0022221 140.6358 338.8212 15.05700915 3305

Satellite not in orbit

2021-022AF